This is the latest recevied weather packets stored in our database for station/object WB3EGK. If no packets are shown the sender has not sent any weather packets the latest 10 day(s).
| Time | Temp. | Humidity | Pressure | Rain* | Wind** | Luminosity | Snow |
|---|---|---|---|---|---|---|---|
| 1778101575 | 9.44° C | 1% | 1009.3 hPa | 0 mm | - | 127 W/m² | - |
| 1778101271 | 9.44° C | 1% | 1009.1 hPa | 0 mm | - | 96 W/m² | - |
| 1778100968 | 9.44° C | 1% | 1009.1 hPa | 0 mm | - | 108 W/m² | - |
| 1778100663 | 10° C | 1% | 1009 hPa | 0 mm | - | 128 W/m² | - |
| 1778100361 | 10° C | 1% | 1009 hPa | 0 mm | - | 206 W/m² | - |
| 1778100058 | 10° C | 1% | 1009.1 hPa | 0 mm | - | 182 W/m² | - |
| 1778099756 | 10.56° C | 1% | 1008.9 hPa | 0 mm | - | 295 W/m² | - |
| 1778099452 | 10.56° C | 1% | 1008.8 hPa | 0 mm | - | 274 W/m² | - |
| 1778099150 | 10.56° C | 1% | 1008.8 hPa | 0 mm | - | 314 W/m² | - |
| 1778098846 | 10.56° C | 1% | 1009 hPa | 0 mm | - | 383 W/m² | - |
| 1778098544 | 10.56° C | 1% | 1009.1 hPa | 0 mm | - | 330 W/m² | - |
| 1778098240 | 11.11° C | 1% | 1009.1 hPa | 0 mm | - | 295 W/m² | - |
| 1778097936 | 10.56° C | 1% | 1009.1 hPa | 0 mm | - | 501 W/m² | - |
| 1778097633 | 10.56° C | 1% | 1008.8 hPa | 0 mm | - | 361 W/m² | - |
| 1778097330 | 10.56° C | 1% | 1008.9 hPa | 0 mm | - | 314 W/m² | - |
| 1778097026 | 10.56° C | 1% | 1008.9 hPa | 0 mm | - | 314 W/m² | - |
| 1778096724 | 11.11° C | 1% | 1009.1 hPa | 0 mm | - | 445 W/m² | - |
| 1778096421 | 11.11° C | 1% | 1009 hPa | 0 mm | - | 456 W/m² | - |
| 1778096118 | 10.56° C | 1% | 1008.7 hPa | 0 mm | - | 343 W/m² | - |
| 1778095815 | 10.56° C | 1% | 1008.7 hPa | 0 mm | - | 311 W/m² | - |
| 1778095512 | 11.11° C | 1% | 1009.1 hPa | 0 mm | - | 278 W/m² | - |
| 1778095208 | 11.11° C | 1% | 1008.8 hPa | 0 mm | - | 603 W/m² | - |
| 1778094905 | 11.67° C | 1% | 1008.7 hPa | 0 mm | - | 552 W/m² | - |
| 1778094601 | 11.11° C | 1% | 1008.7 hPa | 0 mm | - | 498 W/m² | - |
| 1778094298 | 11.67° C | 1% | 1008.6 hPa | 0 mm | - | 498 W/m² | - |
* Rain latest hour (hover to see other rain measurements)
** Current wind speed in m/s (hover to see current wind gust speed)